Amendola, Italy

8:45 PM CEST on March 29, 2017 (GMT +0200)
Amendola Mil

Weather History for LIBA - June, 2014

Change the Weather History Date:

Wednesday, June 25, 2014

  Actual Average Record
Temperature  
Mean Temperature 84 °F -  
Max Temperature 96 °F 88 °F 111 °F (2007)
Min Temperature 73 °F 63 °F 57 °F (1999)
Cooling Degree Days 20    
Growing Degree Days 34 (Base 50)    
Moisture  
Dew Point 65 °F    
Average Humidity 53    
Maximum Humidity 83    
Minimum Humidity 26    
Precipitation  
Precipitation 0.00 in 0.04 in - ()
Sea Level Pressure  
Sea Level Pressure 29.81 in    
Wind  
Wind Speed 9 mph ()    
Max Wind Speed 23 mph    
Max Gust Speed 37 mph    
Visibility 6.4 miles    
Events Rain    
Averages and records for this station are not official NWS values.
T = Trace of Precipitation, MM = Missing Value Source: Averaged Metar Reports

Daily Weather History Graph

Daily Weather History Graph

Search for Another Location

Airport or City:

Trip Planner

Search our weather history database for the weather conditions in past years. The results will help you decide how hot, cold, wet, or windy it might be!

Date:

Astronomy

Jun. 25, 2014 Rise Set
Actual Time 5:24 AM CEST 8:35 PM CEST
Civil Twilight 4:50 AM CEST 9:09 PM CEST
Nautical Twilight 4:06 AM CEST 9:52 PM CEST
Astronomical Twilight 3:14 AM CEST 10:45 PM CEST
Moon 4:03 AM CEST (6/25) 6:50 PM CEST (6/25)
Length of Visible Light 16h 18m
Length of Day
15h 10m
Waning Crescent, 4% of the Moon is Illuminated
Jun 25
Waning Crescent
Jun 27
New
Jul 5
First Quarter
Jul 12
Full
Jul 19
Last Quarter

Hourly Weather History & Observations

Time (CEST) Temp. Heat Index Dew Point Humidity Pressure Visibility Wind Dir Wind Speed Gust Speed Precip Events Conditions
6:55 AM 78.8 °F - 64.4 °F 61% 29.83 in 4.3 mi WSW 23.0 mph 36.8 mph N/A Rain Light Rain Showers
7:02 AM 73.4 °F - 68.0 °F 83% 29.83 in 6.2 mi WSW 5.8 mph - N/A   Mostly Cloudy
7:55 AM 78.8 °F - 64.4 °F 61% 29.86 in 6.2 mi West 11.5 mph - N/A   Mostly Cloudy
8:00 AM 79 °F - 65 °F 54% 29.87 in 7 mi West 11.5 mph - - Rain Light Rain Showers
8:55 AM 75.2 °F - 69.8 °F 83% 29.86 in 6.2 mi NW 12.7 mph - N/A   Mostly Cloudy
9:55 AM 77.0 °F - 69.8 °F 78% 29.86 in 6.2 mi SSW 4.6 mph - N/A   Scattered Clouds
10:55 AM 82.4 °F 83.9 °F 64.4 °F 54% 29.86 in 6.2 mi SSE 4.6 mph - N/A   Scattered Clouds
11:00 AM 82 °F - 64 °F 45% 29.86 in 7 mi SSE 4.6 mph - -   Partly Cloudy
11:55 AM 87.8 °F 87.6 °F 60.8 °F 40% 29.83 in 6.2 mi SE 9.2 mph - N/A   Partly Cloudy
12:55 PM 84.2 °F 87.3 °F 68.0 °F 58% 29.83 in 6.2 mi ENE 11.5 mph - N/A   Scattered Clouds
1:55 PM 86.0 °F 91.8 °F 71.6 °F 62% 29.80 in 6.2 mi East 10.4 mph - N/A   Scattered Clouds
2:00 PM 86 °F - 72 °F 55% 29.81 in 7 mi East 10.4 mph - -   Partly Cloudy
2:55 PM 91.4 °F 92.1 °F 62.6 °F 38% 29.77 in 6.2 mi SW 5.8 mph - N/A   Scattered Clouds
3:55 PM 95.0 °F 93.0 °F 55.4 °F 26% 29.77 in 6.2 mi SW 9.2 mph - N/A   Partly Cloudy
4:55 PM 89.6 °F 93.4 °F 68.0 °F 49% 29.77 in 6.2 mi SSW 8.1 mph - N/A   Partly Cloudy
5:00 PM 90 °F - 69 °F 40% 29.76 in 9 mi SSW 8.1 mph - -   Scattered Clouds
5:55 PM 91.4 °F 92.1 °F 62.6 °F 38% 29.74 in 6.2 mi WSW 12.7 mph - N/A   Partly Cloudy
6:55 PM 86.0 °F 86.6 °F 62.6 °F 45% 29.77 in 6.2 mi WSW 11.5 mph - N/A   Partly Cloudy
7:55 PM 84.2 °F 85.6 °F 64.4 °F 51% 29.77 in - SSW 5.8 mph - N/A   Clear
8:00 PM 85 °F - 64 °F 39% 29.77 in 7 mi SSW 5.8 mph - -   Scattered Clouds
8:55 PM 82.4 °F 83.4 °F 62.6 °F 51% 29.77 in - WSW 5.8 mph - N/A   Clear
9:55 PM 78.8 °F - 62.6 °F 57% 29.77 in - SW 10.4 mph - N/A   Clear